owner,sensor,date,latitude,longitude,vertical_datum,mass_concentration_of_oxygen_in_sea_water,qcFlag 
DISL,ioos:station:DISL:DISL:1,2008-04-01T00:00:00Z,30.2513,-88.0778,6.712,7.51,1111122 
DISL,ioos:station:DISL:DISL:1,2008-04-01T00:30:00Z,30.2513,-88.0778,6.609,7.48,1111122 
DISL,ioos:station:DISL:DISL:1,2008-04-01T01:00:00Z,30.2513,-88.0778,6.667,7.6,1111122 
DISL,ioos:station:DISL:DISL:1,2008-04-01T01:30:00Z,30.2513,-88.0778,6.658,7.44,1111122 
DISL,ioos:station:DISL:DISL:1,2008-04-01T02:00:00Z,30.2513,-88.0778,6.586,7.45,1111122 
DISL,ioos:station:DISL:DISL:1,2008-04-01T02:30:00Z,30.2513,-88.0778,6.612,7.47,1111122 
DISL,ioos:station:DISL:DISL:1,2008-04-01T03:00:00Z,30.2513,-88.0778,6.585,7.56,1111122 
DISL,ioos:station:DISL:DISL:1,2008-04-01T03:30:00Z,30.2513,-88.0778,6.496,7.53,1111122 
DISL,ioos:station:DISL:DISL:1,2008-04-01T04:00:00Z,30.2513,-88.0778,6.406,7.48,1111122 
DISL,ioos:station:DISL:DISL:1,2008-04-01T04:30:00Z,30.2513,-88.0778,6.35,7.38,1111122 
DISL,ioos:station:DISL:DISL:1,2008-04-01T05:00:00Z,30.2513,-88.0778,6.216,7.31,1111122 
DISL,ioos:station:DISL:DISL:1,2008-04-01T05:30:00Z,30.2513,-88.0778,6.196,7.31,1111122 
DISL,ioos:station:DISL:DISL:1,2008-04-01T06:00:00Z,30.2513,-88.0778,6.134,7.29,1111122 
DISL,ioos:station:DISL:DISL:1,2008-04-01T06:30:00Z,30.2513,-88.0778,6.112,7.05,1111122 
DISL,ioos:station:DISL:DISL:1,2008-04-01T07:00:00Z,30.2513,-88.0778,5.971,7.05,1111122 
DISL,ioos:station:DISL:DISL:1,2008-04-01T07:30:00Z,30.2513,-88.0778,5.932,7.1,1111122 
DISL,ioos:station:DISL:DISL:1,2008-04-01T08:00:00Z,30.2513,-88.0778,5.899,7.13,1111122 
DISL,ioos:station:DISL:DISL:1,2008-04-01T08:30:00Z,30.2513,-88.0778,5.829,7.12,1111122 
DISL,ioos:station:DISL:DISL:1,2008-04-01T09:00:00Z,30.2513,-88.0778,5.684,7.38,1111122 
DISL,ioos:station:DISL:DISL:1,2008-04-01T09:30:00Z,30.2513,-88.0778,5.636,7.23,1111122 
DISL,ioos:station:DISL:DISL:1,2008-04-01T10:00:00Z,30.2513,-88.0778,5.657,7.5,1111122 
DISL,ioos:station:DISL:DISL:1,2008-04-01T10:30:00Z,30.2513,-88.0778,5.614,7.31,1111122 
DISL,ioos:station:DISL:DISL:1,2008-04-01T11:00:00Z,30.2513,-88.0778,5.604,6.99,1111122 
DISL,ioos:station:DISL:DISL:1,2008-04-01T11:30:00Z,30.2513,-88.0778,5.646,7.01,1111122 
DISL,ioos:station:DISL:DISL:1,2008-04-01T12:00:00Z,30.2513,-88.0778,5.651,7.05,1111122 
DISL,ioos:station:DISL:DISL:1,2008-04-01T12:30:00Z,30.2513,-88.0778,5.641,6.79,1111122 
DISL,ioos:station:DISL:DISL:1,2008-04-01T13:00:00Z,30.2513,-88.0778,5.712,6.96,1111122 
DISL,ioos:station:DISL:DISL:1,2008-04-01T13:30:00Z,30.2513,-88.0778,5.76,6.86,1111122 
DISL,ioos:station:DISL:DISL:1,2008-04-01T14:00:00Z,30.2513,-88.0778,5.873,6.65,1111122 
DISL,ioos:station:DISL:DISL:1,2008-04-01T14:30:00Z,30.2513,-88.0778,5.848,6.47,1111122 
DISL,ioos:station:DISL:DISL:1,2008-04-01T15:00:00Z,30.2513,-88.0778,5.89,7.51,1111122 
DISL,ioos:station:DISL:DISL:1,2008-04-01T15:30:00Z,30.2513,-88.0778,6.002,7.13,1111122 
DISL,ioos:station:DISL:DISL:1,2008-04-01T16:00:00Z,30.2513,-88.0778,6.071,7.27,1111122 
DISL,ioos:station:DISL:DISL:1,2008-04-01T16:30:00Z,30.2513,-88.0778,6.131,7.22,1111122 
DISL,ioos:station:DISL:DISL:1,2008-04-01T17:00:00Z,30.2513,-88.0778,6.205,6.79,1111122 
DISL,ioos:station:DISL:DISL:1,2008-04-01T17:30:00Z,30.2513,-88.0778,6.265,7.2,1111122 
DISL,ioos:station:DISL:DISL:1,2008-04-01T18:00:00Z,30.2513,-88.0778,6.303,7.1,1111122 
DISL,ioos:station:DISL:DISL:1,2008-04-01T18:30:00Z,30.2513,-88.0778,6.343,7.11,1111122 
DISL,ioos:station:DISL:DISL:1,2008-04-01T19:00:00Z,30.2513,-88.0778,6.397,7.39,1111122 
DISL,ioos:station:DISL:DISL:1,2008-04-01T19:30:00Z,30.2513,-88.0778,6.411,7.33,1111122 
DISL,ioos:station:DISL:DISL:1,2008-04-01T20:00:00Z,30.2513,-88.0778,6.413,7.69,1111122 
DISL,ioos:station:DISL:DISL:1,2008-04-01T20:30:00Z,30.2513,-88.0778,6.48,8.15,1111122 
DISL,ioos:station:DISL:DISL:1,2008-04-01T21:00:00Z,30.2513,-88.0778,6.508,8.56,1111122 
DISL,ioos:station:DISL:DISL:1,2008-04-01T21:30:00Z,30.2513,-88.0778,6.379,7.81,1111122 
DISL,ioos:station:DISL:DISL:1,2008-04-01T22:00:00Z,30.2513,-88.0778,6.406,7.27,1111122 
DISL,ioos:station:DISL:DISL:1,2008-04-01T22:30:00Z,30.2513,-88.0778,6.604,7.63,1111122 
DISL,ioos:station:DISL:DISL:1,2008-04-01T23:00:00Z,30.2513,-88.0778,6.591,7.15,1111122 
DISL,ioos:station:DISL:DISL:1,2008-04-01T23:30:00Z,30.2513,-88.0778,6.512,7.18,1111122 
DISL,ioos:station:DISL:DISL:1,2008-04-02T00:00:00Z,30.2513,-88.0778,6.694,7.42,1111122 
DISL,ioos:station:DISL:DISL:1,2008-04-02T00:30:00Z,30.2513,-88.0778,6.698,7.11,1111122 
DISL,ioos:station:DISL:DISL:1,2008-04-02T01:00:00Z,30.2513,-88.0778,6.67,7.88,1111122 
DISL,ioos:station:DISL:DISL:1,2008-04-02T01:30:00Z,30.2513,-88.0778,6.596,7.53,1111122 
DISL,ioos:station:DISL:DISL:1,2008-04-02T02:00:00Z,30.2513,-88.0778,6.547,7.35,1111122 
DISL,ioos:station:DISL:DISL:1,2008-04-02T02:30:00Z,30.2513,-88.0778,6.466,7.36,1111122 
DISL,ioos:station:DISL:DISL:1,2008-04-02T03:00:00Z,30.2513,-88.0778,6.42,7.57,1111122 
DISL,ioos:station:DISL:DISL:1,2008-04-02T03:30:00Z,30.2513,-88.0778,6.458,7.2,1111122 
DISL,ioos:station:DISL:DISL:1,2008-04-02T04:00:00Z,30.2513,-88.0778,6.316,7.41,1111122 
DISL,ioos:station:DISL:DISL:1,2008-04-02T04:30:00Z,30.2513,-88.0778,6.25,7.93,1111122 
DISL,ioos:station:DISL:DISL:1,2008-04-02T05:00:00Z,30.2513,-88.0778,6.192,8.13,1111122 
DISL,ioos:station:DISL:DISL:1,2008-04-02T05:30:00Z,30.2513,-88.0778,6.145,7.99,1111122 
DISL,ioos:station:DISL:DISL:1,2008-04-02T06:00:00Z,30.2513,-88.0778,6.067,7.71,1111122 
DISL,ioos:station:DISL:DISL:1,2008-04-02T06:30:00Z,30.2513,-88.0778,6.01,7.84,1111122 
DISL,ioos:station:DISL:DISL:1,2008-04-02T07:00:00Z,30.2513,-88.0778,5.966,7.57,1111122 
DISL,ioos:station:DISL:DISL:1,2008-04-02T07:30:00Z,30.2513,-88.0778,5.816,8.08,1111122 
DISL,ioos:station:DISL:DISL:1,2008-04-02T08:00:00Z,30.2513,-88.0778,5.745,7.75,1111122 
DISL,ioos:station:DISL:DISL:1,2008-04-02T08:30:00Z,30.2513,-88.0778,5.685,7.7,1111122 
DISL,ioos:station:DISL:DISL:1,2008-04-02T09:00:00Z,30.2513,-88.0778,5.627,8.0,1111122 
DISL,ioos:station:DISL:DISL:1,2008-04-02T09:30:00Z,30.2513,-88.0778,5.619,7.96,1111122 
DISL,ioos:station:DISL:DISL:1,2008-04-02T10:00:00Z,30.2513,-88.0778,5.62,7.57,1111122 
DISL,ioos:station:DISL:DISL:1,2008-04-02T10:30:00Z,30.2513,-88.0778,5.604,7.73,1111122 
DISL,ioos:station:DISL:DISL:1,2008-04-02T11:00:00Z,30.2513,-88.0778,5.564,7.99,1111122 
DISL,ioos:station:DISL:DISL:1,2008-04-02T11:30:00Z,30.2513,-88.0778,5.591,7.87,1111122 
DISL,ioos:station:DISL:DISL:1,2008-04-02T12:00:00Z,30.2513,-88.0778,5.571,7.36,1111122 
DISL,ioos:station:DISL:DISL:1,2008-04-02T12:30:00Z,30.2513,-88.0778,5.579,6.86,1111122 
DISL,ioos:station:DISL:DISL:1,2008-04-02T13:00:00Z,30.2513,-88.0778,5.639,7.44,1111122 
DISL,ioos:station:DISL:DISL:1,2008-04-02T13:30:00Z,30.2513,-88.0778,5.679,7.2,1111122 
DISL,ioos:station:DISL:DISL:1,2008-04-02T14:00:00Z,30.2513,-88.0778,5.671,6.53,1111122 
DISL,ioos:station:DISL:DISL:1,2008-04-02T14:30:00Z,30.2513,-88.0778,5.704,6.62,1111122 
DISL,ioos:station:DISL:DISL:1,2008-04-02T15:00:00Z,30.2513,-88.0778,5.711,6.15,1111122 
DISL,ioos:station:DISL:DISL:1,2008-04-02T15:30:00Z,30.2513,-88.0778,5.768,6.13,1111122 
DISL,ioos:station:DISL:DISL:1,2008-04-02T16:00:00Z,30.2513,-88.0778,5.825,6.23,1111122 
DISL,ioos:station:DISL:DISL:1,2008-04-02T16:30:00Z,30.2513,-88.0778,5.825,5.97,1111122 
DISL,ioos:station:DISL:DISL:1,2008-04-02T17:00:00Z,30.2513,-88.0778,5.907,7.03,1111122 
DISL,ioos:station:DISL:DISL:1,2008-04-02T17:30:00Z,30.2513,-88.0778,5.981,6.98,1111122 
DISL,ioos:station:DISL:DISL:1,2008-04-02T18:00:00Z,30.2513,-88.0778,6.047,7.18,1111122 
DISL,ioos:station:DISL:DISL:1,2008-04-02T18:30:00Z,30.2513,-88.0778,6.05,6.67,1111122 
DISL,ioos:station:DISL:DISL:1,2008-04-02T19:00:00Z,30.2513,-88.0778,6.053,6.7,1111122 
DISL,ioos:station:DISL:DISL:1,2008-04-02T19:30:00Z,30.2513,-88.0778,6.068,6.9,1111122 
DISL,ioos:station:DISL:DISL:1,2008-04-02T20:00:00Z,30.2513,-88.0778,6.091,7.2,1111122 
DISL,ioos:station:DISL:DISL:1,2008-04-02T20:30:00Z,30.2513,-88.0778,6.128,6.16,1111122 
DISL,ioos:station:DISL:DISL:1,2008-04-02T21:00:00Z,30.2513,-88.0778,6.181,6.79,1111122 
DISL,ioos:station:DISL:DISL:1,2008-04-02T21:30:00Z,30.2513,-88.0778,6.237,6.06,1111122 
DISL,ioos:station:DISL:DISL:1,2008-04-02T22:00:00Z,30.2513,-88.0778,6.314,6.38,1111122 
DISL,ioos:station:DISL:DISL:1,2008-04-02T22:30:00Z,30.2513,-88.0778,6.335,6.2,1111122 
DISL,ioos:station:DISL:DISL:1,2008-04-02T23:00:00Z,30.2513,-88.0778,6.353,5.95,1111122 
DISL,ioos:station:DISL:DISL:1,2008-04-02T23:30:00Z,30.2513,-88.0778,6.425,6.65,1111122 
DISL,ioos:station:DISL:DISL:1,2008-04-03T00:00:00Z,30.2513,-88.0778,6.431,6.25,1111122 
DISL,ioos:station:DISL:DISL:1,2008-04-03T00:30:00Z,30.2513,-88.0778,6.454,7.15,1111122 
DISL,ioos:station:DISL:DISL:1,2008-04-03T01:00:00Z,30.2513,-88.0778,6.473,7.3,1111122 
DISL,ioos:station:DISL:DISL:1,2008-04-03T01:30:00Z,30.2513,-88.0778,6.501,5.34,1111122 
DISL,ioos:station:DISL:DISL:1,2008-04-03T02:00:00Z,30.2513,-88.0778,6.519,6.76,1111122 
DISL,ioos:station:DISL:DISL:1,2008-04-03T02:30:00Z,30.2513,-88.0778,6.529,5.34,1111122 
DISL,ioos:station:DISL:DISL:1,2008-04-03T03:00:00Z,30.2513,-88.0778,6.531,6.16,1111122 
DISL,ioos:station:DISL:DISL:1,2008-04-03T03:30:00Z,30.2513,-88.0778,6.508,6.66,1111122 
DISL,ioos:station:DISL:DISL:1,2008-04-03T04:00:00Z,30.2513,-88.0778,6.496,6.93,1111122 
DISL,ioos:station:DISL:DISL:1,2008-04-03T04:30:00Z,30.2513,-88.0778,6.421,6.93,1111122 
DISL,ioos:station:DISL:DISL:1,2008-04-03T05:00:00Z,30.2513,-88.0778,6.374,6.36,1111122 
DISL,ioos:station:DISL:DISL:1,2008-04-03T05:30:00Z,30.2513,-88.0778,6.278,6.68,1111122 
DISL,ioos:station:DISL:DISL:1,2008-04-03T06:00:00Z,30.2513,-88.0778,6.243,8.28,1111122 
DISL,ioos:station:DISL:DISL:1,2008-04-03T06:30:00Z,30.2513,-88.0778,6.15,8.65,1111122 
DISL,ioos:station:DISL:DISL:1,2008-04-03T07:00:00Z,30.2513,-88.0778,6.138,8.28,1111122 
DISL,ioos:station:DISL:DISL:1,2008-04-03T07:30:00Z,30.2513,-88.0778,6.037,7.78,1111122 
DISL,ioos:station:DISL:DISL:1,2008-04-03T08:00:00Z,30.2513,-88.0778,5.982,7.9,1111122 
DISL,ioos:station:DISL:DISL:1,2008-04-03T08:30:00Z,30.2513,-88.0778,5.931,7.32,1111122 
DISL,ioos:station:DISL:DISL:1,2008-04-03T09:00:00Z,30.2513,-88.0778,5.895,7.45,1111122 
DISL,ioos:station:DISL:DISL:1,2008-04-03T09:30:00Z,30.2513,-88.0778,5.853,7.6,1111122 
DISL,ioos:station:DISL:DISL:1,2008-04-03T10:00:00Z,30.2513,-88.0778,5.824,7.62,1111122 
DISL,ioos:station:DISL:DISL:1,2008-04-03T10:30:00Z,30.2513,-88.0778,5.817,7.61,1111122 
DISL,ioos:station:DISL:DISL:1,2008-04-03T11:00:00Z,30.2513,-88.0778,5.763,7.6,1111122 
DISL,ioos:station:DISL:DISL:1,2008-04-03T11:30:00Z,30.2513,-88.0778,5.727,7.47,1111122 
DISL,ioos:station:DISL:DISL:1,2008-04-03T12:00:00Z,30.2513,-88.0778,5.796,7.21,1111122 
DISL,ioos:station:DISL:DISL:1,2008-04-03T12:30:00Z,30.2513,-88.0778,5.781,7.36,1111122 
DISL,ioos:station:DISL:DISL:1,2008-04-03T13:00:00Z,30.2513,-88.0778,5.792,7.83,1111122 
DISL,ioos:station:DISL:DISL:1,2008-04-03T13:30:00Z,30.2513,-88.0778,5.759,6.52,1111122 
DISL,ioos:station:DISL:DISL:1,2008-04-03T14:00:00Z,30.2513,-88.0778,5.797,6.33,1111122 
DISL,ioos:station:DISL:DISL:1,2008-04-03T14:30:00Z,30.2513,-88.0778,5.876,6.13,1111122 
DISL,ioos:station:DISL:DISL:1,2008-04-03T15:00:00Z,30.2513,-88.0778,5.895,6.25,1111122 
DISL,ioos:station:DISL:DISL:1,2008-04-03T15:30:00Z,30.2513,-88.0778,5.917,6.47,1111122 
DISL,ioos:station:DISL:DISL:1,2008-04-03T16:00:00Z,30.2513,-88.0778,5.946,6.53,1111122 
DISL,ioos:station:DISL:DISL:1,2008-04-03T16:30:00Z,30.2513,-88.0778,6.015,6.55,1111122 
DISL,ioos:station:DISL:DISL:1,2008-04-03T17:00:00Z,30.2513,-88.0778,6.028,6.9,1111122 
DISL,ioos:station:DISL:DISL:1,2008-04-03T17:30:00Z,30.2513,-88.0778,6.121,7.11,1111122 
DISL,ioos:station:DISL:DISL:1,2008-04-03T18:00:00Z,30.2513,-88.0778,6.128,7.7,1111122 
DISL,ioos:station:DISL:DISL:1,2008-04-03T18:30:00Z,30.2513,-88.0778,6.158,7.38,1111122 
DISL,ioos:station:DISL:DISL:1,2008-04-03T19:00:00Z,30.2513,-88.0778,6.122,7.61,1111122 
DISL,ioos:station:DISL:DISL:1,2008-04-03T19:30:00Z,30.2513,-88.0778,6.147,7.43,1111122 
DISL,ioos:station:DISL:DISL:1,2008-04-03T20:00:00Z,30.2513,-88.0778,6.136,7.73,1111122 
DISL,ioos:station:DISL:DISL:1,2008-04-03T20:30:00Z,30.2513,-88.0778,6.127,7.79,1111122 
DISL,ioos:station:DISL:DISL:1,2008-04-03T21:00:00Z,30.2513,-88.0778,6.184,8.18,1111122 
DISL,ioos:station:DISL:DISL:1,2008-04-03T21:30:00Z,30.2513,-88.0778,6.185,8.53,1111122 
DISL,ioos:station:DISL:DISL:1,2008-04-03T22:00:00Z,30.2513,-88.0778,6.229,8.89,1111122 
DISL,ioos:station:DISL:DISL:1,2008-04-03T22:30:00Z,30.2513,-88.0778,6.221,8.96,1111122 
DISL,ioos:station:DISL:DISL:1,2008-04-03T23:00:00Z,30.2513,-88.0778,6.282,8.26,1111122 
DISL,ioos:station:DISL:DISL:1,2008-04-03T23:30:00Z,30.2513,-88.0778,6.322,8.21,1111122 
DISL,ioos:station:DISL:DISL:1,2008-04-04T00:00:00Z,30.2513,-88.0778,6.33,8.02,1111122 
DISL,ioos:station:DISL:DISL:1,2008-04-04T00:30:00Z,30.2513,-88.0778,6.373,7.24,1111122 
DISL,ioos:station:DISL:DISL:1,2008-04-04T01:00:00Z,30.2513,-88.0778,6.376,7.01,1111122 
DISL,ioos:station:DISL:DISL:1,2008-04-04T01:30:00Z,30.2513,-88.0778,6.371,7.03,1111122 
DISL,ioos:station:DISL:DISL:1,2008-04-04T02:00:00Z,30.2513,-88.0778,6.43,6.57,1111122 
DISL,ioos:station:DISL:DISL:1,2008-04-04T02:30:00Z,30.2513,-88.0778,6.366,6.76,1111122 
DISL,ioos:station:DISL:DISL:1,2008-04-04T03:00:00Z,30.2513,-88.0778,6.418,6.65,1111122 
DISL,ioos:station:DISL:DISL:1,2008-04-04T03:30:00Z,30.2513,-88.0778,6.437,6.62,1111122 
DISL,ioos:station:DISL:DISL:1,2008-04-04T04:00:00Z,30.2513,-88.0778,6.506,7.22,1111122 
DISL,ioos:station:DISL:DISL:1,2008-04-04T04:30:00Z,30.2513,-88.0778,6.447,7.14,1111122 
DISL,ioos:station:DISL:DISL:1,2008-04-04T05:00:00Z,30.2513,-88.0778,6.436,6.96,1111122 
DISL,ioos:station:DISL:DISL:1,2008-04-04T05:30:00Z,30.2513,-88.0778,6.436,7.02,1111122 
DISL,ioos:station:DISL:DISL:1,2008-04-04T06:00:00Z,30.2513,-88.0778,6.423,6.65,1111122 
DISL,ioos:station:DISL:DISL:1,2008-04-04T06:30:00Z,30.2513,-88.0778,6.397,6.98,1111122 
DISL,ioos:station:DISL:DISL:1,2008-04-04T07:00:00Z,30.2513,-88.0778,6.333,6.75,1111122 
DISL,ioos:station:DISL:DISL:1,2008-04-04T07:30:00Z,30.2513,-88.0778,6.321,6.87,1111122 
DISL,ioos:station:DISL:DISL:1,2008-04-04T08:00:00Z,30.2513,-88.0778,6.27,5.85,1111122 
DISL,ioos:station:DISL:DISL:1,2008-04-04T08:30:00Z,30.2513,-88.0778,6.258,6.43,1111122 
DISL,ioos:station:DISL:DISL:1,2008-04-04T09:00:00Z,30.2513,-88.0778,6.24,6.05,1111122 
DISL,ioos:station:DISL:DISL:1,2008-04-04T09:30:00Z,30.2513,-88.0778,6.22,6.28,1111122 
DISL,ioos:station:DISL:DISL:1,2008-04-04T10:00:00Z,30.2513,-88.0778,6.294,6.37,1111122 
DISL,ioos:station:DISL:DISL:1,2008-04-04T10:30:00Z,30.2513,-88.0778,6.339,5.57,1111122 
DISL,ioos:station:DISL:DISL:1,2008-04-04T11:00:00Z,30.2513,-88.0778,6.256,5.43,1111122 
DISL,ioos:station:DISL:DISL:1,2008-04-04T11:30:00Z,30.2513,-88.0778,6.343,5.88,1111122 
DISL,ioos:station:DISL:DISL:1,2008-04-04T12:00:00Z,30.2513,-88.0778,6.349,5.44,1111122 
DISL,ioos:station:DISL:DISL:1,2008-04-04T12:30:00Z,30.2513,-88.0778,6.338,5.6,1111122 
DISL,ioos:station:DISL:DISL:1,2008-04-04T13:00:00Z,30.2513,-88.0778,6.348,5.12,1111122 
DISL,ioos:station:DISL:DISL:1,2008-04-04T13:30:00Z,30.2513,-88.0778,6.372,5.4,1111122 
DISL,ioos:station:DISL:DISL:1,2008-04-04T14:00:00Z,30.2513,-88.0778,6.439,5.21,1111122 
DISL,ioos:station:DISL:DISL:1,2008-04-04T14:30:00Z,30.2513,-88.0778,6.452,5.54,1111122 
DISL,ioos:station:DISL:DISL:1,2008-04-04T15:00:00Z,30.2513,-88.0778,6.471,5.42,1111122 
DISL,ioos:station:DISL:DISL:1,2008-04-04T15:30:00Z,30.2513,-88.0778,6.444,5.68,1111122 
DISL,ioos:station:DISL:DISL:1,2008-04-04T16:00:00Z,30.2513,-88.0778,6.421,5.42,1111122 
DISL,ioos:station:DISL:DISL:1,2008-04-04T16:30:00Z,30.2513,-88.0778,6.481,5.69,1111122 
DISL,ioos:station:DISL:DISL:1,2008-04-04T17:00:00Z,30.2513,-88.0778,6.496,5.35,1111122 
DISL,ioos:station:DISL:DISL:1,2008-04-04T17:30:00Z,30.2513,-88.0778,6.488,6.06,1111122 
DISL,ioos:station:DISL:DISL:1,2008-04-04T18:00:00Z,30.2513,-88.0778,6.389,6.13,1111122 
DISL,ioos:station:DISL:DISL:1,2008-04-04T18:30:00Z,30.2513,-88.0778,6.386,6.79,1111122 
DISL,ioos:station:DISL:DISL:1,2008-04-04T19:00:00Z,30.2513,-88.0778,6.355,6.48,1111122 
DISL,ioos:station:DISL:DISL:1,2008-04-04T19:30:00Z,30.2513,-88.0778,6.31,7.42,1111122 
DISL,ioos:station:DISL:DISL:1,2008-04-04T20:00:00Z,30.2513,-88.0778,6.28,7.53,1111122 
DISL,ioos:station:DISL:DISL:1,2008-04-04T20:30:00Z,30.2513,-88.0778,6.229,7.59,1111122 
DISL,ioos:station:DISL:DISL:1,2008-04-04T21:00:00Z,30.2513,-88.0778,6.259,8.25,1111122 
DISL,ioos:station:DISL:DISL:1,2008-04-04T21:30:00Z,30.2513,-88.0778,6.251,7.28,1111122 
DISL,ioos:station:DISL:DISL:1,2008-04-04T22:00:00Z,30.2513,-88.0778,6.264,7.59,1111122 
DISL,ioos:station:DISL:DISL:1,2008-04-04T22:30:00Z,30.2513,-88.0778,6.254,7.44,1111122 
DISL,ioos:station:DISL:DISL:1,2008-04-04T23:00:00Z,30.2513,-88.0778,6.314,7.49,1111122 
DISL,ioos:station:DISL:DISL:1,2008-04-04T23:30:00Z,30.2513,-88.0778,6.295,7.34,1111122 
DISL,ioos:station:DISL:DISL:1,2008-04-05T00:00:00Z,30.2513,-88.0778,6.304,6.62,1111122 
DISL,ioos:station:DISL:DISL:1,2008-04-05T00:30:00Z,30.2513,-88.0778,6.317,6.5,1111122 
DISL,ioos:station:DISL:DISL:1,2008-04-05T01:00:00Z,30.2513,-88.0778,6.366,6.84,1111122 
DISL,ioos:station:DISL:DISL:1,2008-04-05T01:30:00Z,30.2513,-88.0778,6.397,7.23,1111122 
DISL,ioos:station:DISL:DISL:1,2008-04-05T02:00:00Z,30.2513,-88.0778,6.494,7.23,1111122 
DISL,ioos:station:DISL:DISL:1,2008-04-05T02:30:00Z,30.2513,-88.0778,6.514,7.5,1111122 
DISL,ioos:station:DISL:DISL:1,2008-04-05T03:00:00Z,30.2513,-88.0778,6.602,7.53,1111122 
DISL,ioos:station:DISL:DISL:1,2008-04-05T03:30:00Z,30.2513,-88.0778,6.615,7.63,1111122 
DISL,ioos:station:DISL:DISL:1,2008-04-05T04:00:00Z,30.2513,-88.0778,6.697,7.37,1111122 
DISL,ioos:station:DISL:DISL:1,2008-04-05T04:30:00Z,30.2513,-88.0778,6.678,7.1,1111122 
DISL,ioos:station:DISL:DISL:1,2008-04-05T05:00:00Z,30.2513,-88.0778,6.776,7.03,1111122 
DISL,ioos:station:DISL:DISL:1,2008-04-05T05:30:00Z,30.2513,-88.0778,6.918,6.98,1111122 
DISL,ioos:station:DISL:DISL:1,2008-04-05T06:00:00Z,30.2513,-88.0778,6.882,6.72,1111122 
DISL,ioos:station:DISL:DISL:1,2008-04-05T06:30:00Z,30.2513,-88.0778,6.878,6.59,1111122 
DISL,ioos:station:DISL:DISL:1,2008-04-05T07:00:00Z,30.2513,-88.0778,6.863,6.56,1111122 
DISL,ioos:station:DISL:DISL:1,2008-04-05T07:30:00Z,30.2513,-88.0778,6.849,6.11,1111122 
DISL,ioos:station:DISL:DISL:1,2008-04-05T08:00:00Z,30.2513,-88.0778,6.833,6.18,1111122 
DISL,ioos:station:DISL:DISL:1,2008-04-05T08:30:00Z,30.2513,-88.0778,6.919,6.5,1111122 
DISL,ioos:station:DISL:DISL:1,2008-04-05T09:00:00Z,30.2513,-88.0778,6.927,6.58,1111122 
DISL,ioos:station:DISL:DISL:1,2008-04-05T09:30:00Z,30.2513,-88.0778,6.958,5.54,1111122 
DISL,ioos:station:DISL:DISL:1,2008-04-05T10:00:00Z,30.2513,-88.0778,6.838,5.36,1111122 
DISL,ioos:station:DISL:DISL:1,2008-04-05T10:30:00Z,30.2513,-88.0778,6.843,5.62,1111122 
DISL,ioos:station:DISL:DISL:1,2008-04-05T11:00:00Z,30.2513,-88.0778,6.955,6.77,1111122 
DISL,ioos:station:DISL:DISL:1,2008-04-05T11:30:00Z,30.2513,-88.0778,7.08,7.0,1111122 
DISL,ioos:station:DISL:DISL:1,2008-04-05T12:00:00Z,30.2513,-88.0778,7.23,6.71,1111122 
DISL,ioos:station:DISL:DISL:1,2008-04-05T12:30:00Z,30.2513,-88.0778,7.01,6.82,1111122 
DISL,ioos:station:DISL:DISL:1,2008-04-05T13:00:00Z,30.2513,-88.0778,6.909,6.4,1111122 
DISL,ioos:station:DISL:DISL:1,2008-04-05T13:30:00Z,30.2513,-88.0778,7.18,6.5,1111122 
DISL,ioos:station:DISL:DISL:1,2008-04-05T14:00:00Z,30.2513,-88.0778,7.1,6.71,1111122 
DISL,ioos:station:DISL:DISL:1,2008-04-05T14:30:00Z,30.2513,-88.0778,6.928,6.71,1111122 
DISL,ioos:station:DISL:DISL:1,2008-04-05T15:00:00Z,30.2513,-88.0778,6.989,6.44,1111122 
DISL,ioos:station:DISL:DISL:1,2008-04-05T15:30:00Z,30.2513,-88.0778,6.975,6.29,1111122 
DISL,ioos:station:DISL:DISL:1,2008-04-05T16:00:00Z,30.2513,-88.0778,6.923,6.22,1111122 
DISL,ioos:station:DISL:DISL:1,2008-04-05T16:30:00Z,30.2513,-88.0778,6.857,6.09,1111122 
DISL,ioos:station:DISL:DISL:1,2008-04-05T17:00:00Z,30.2513,-88.0778,6.776,6.16,1111122 
DISL,ioos:station:DISL:DISL:1,2008-04-05T17:30:00Z,30.2513,-88.0778,6.856,6.01,1111122 
DISL,ioos:station:DISL:DISL:1,2008-04-05T18:00:00Z,30.2513,-88.0778,6.817,6.08,1111122 
DISL,ioos:station:DISL:DISL:1,2008-04-05T18:30:00Z,30.2513,-88.0778,6.612,7.27,1111122 
DISL,ioos:station:DISL:DISL:1,2008-04-05T19:00:00Z,30.2513,-88.0778,6.723,7.4,1111122 
DISL,ioos:station:DISL:DISL:1,2008-04-05T19:30:00Z,30.2513,-88.0778,6.785,7.47,1111122 
DISL,ioos:station:DISL:DISL:1,2008-04-05T20:00:00Z,30.2513,-88.0778,6.571,7.61,1111122 
DISL,ioos:station:DISL:DISL:1,2008-04-05T20:30:00Z,30.2513,-88.0778,6.444,7.84,1111122 
DISL,ioos:station:DISL:DISL:1,2008-04-05T21:00:00Z,30.2513,-88.0778,6.333,8.12,1111122 
DISL,ioos:station:DISL:DISL:1,2008-04-05T21:30:00Z,30.2513,-88.0778,6.288,8.12,1111122 
DISL,ioos:station:DISL:DISL:1,2008-04-05T22:00:00Z,30.2513,-88.0778,6.321,8.05,1111122 
DISL,ioos:station:DISL:DISL:1,2008-04-05T22:30:00Z,30.2513,-88.0778,6.178,7.92,1111122 
DISL,ioos:station:DISL:DISL:1,2008-04-05T23:00:00Z,30.2513,-88.0778,6.123,8.08,1111122 
DISL,ioos:station:DISL:DISL:1,2008-04-05T23:30:00Z,30.2513,-88.0778,6.137,8.04,1111122 
DISL,ioos:station:DISL:DISL:1,2008-04-06T00:00:00Z,30.2513,-88.0778,6.089,8.13,1111122 
DISL,ioos:station:DISL:DISL:1,2008-04-06T00:30:00Z,30.2513,-88.0778,5.95,8.07,1111122 
DISL,ioos:station:DISL:DISL:1,2008-04-06T01:00:00Z,30.2513,-88.0778,6.093,8.04,1111122 
DISL,ioos:station:DISL:DISL:1,2008-04-06T01:30:00Z,30.2513,-88.0778,6.045,8.05,1111122 
DISL,ioos:station:DISL:DISL:1,2008-04-06T02:00:00Z,30.2513,-88.0778,6.017,8.03,1111122 
DISL,ioos:station:DISL:DISL:1,2008-04-06T02:30:00Z,30.2513,-88.0778,6.129,7.99,1111122 
DISL,ioos:station:DISL:DISL:1,2008-04-06T03:00:00Z,30.2513,-88.0778,6.039,8.02,1111122 
DISL,ioos:station:DISL:DISL:1,2008-04-06T03:30:00Z,30.2513,-88.0778,6.208,8.05,1111122 
DISL,ioos:station:DISL:DISL:1,2008-04-06T04:00:00Z,30.2513,-88.0778,6.34,7.92,1111122 
DISL,ioos:station:DISL:DISL:1,2008-04-06T04:30:00Z,30.2513,-88.0778,6.18,7.91,1111122 
DISL,ioos:station:DISL:DISL:1,2008-04-06T05:00:00Z,30.2513,-88.0778,6.066,7.85,1111122 
DISL,ioos:station:DISL:DISL:1,2008-04-06T05:30:00Z,30.2513,-88.0778,6.229,7.88,1111122 
DISL,ioos:station:DISL:DISL:1,2008-04-06T06:00:00Z,30.2513,-88.0778,6.089,7.68,1111122 
DISL,ioos:station:DISL:DISL:1,2008-04-06T06:30:00Z,30.2513,-88.0778,6.303,7.24,1111122 
DISL,ioos:station:DISL:DISL:1,2008-04-06T07:00:00Z,30.2513,-88.0778,6.279,6.75,1111122 
DISL,ioos:station:DISL:DISL:1,2008-04-06T07:30:00Z,30.2513,-88.0778,6.342,6.68,1111122 
DISL,ioos:station:DISL:DISL:1,2008-04-06T08:00:00Z,30.2513,-88.0778,6.426,6.65,1111122 
DISL,ioos:station:DISL:DISL:1,2008-04-06T08:30:00Z,30.2513,-88.0778,6.408,6.6,1111122 
DISL,ioos:station:DISL:DISL:1,2008-04-06T09:00:00Z,30.2513,-88.0778,6.476,6.69,1111122 
DISL,ioos:station:DISL:DISL:1,2008-04-06T09:30:00Z,30.2513,-88.0778,6.514,6.58,1111122 
DISL,ioos:station:DISL:DISL:1,2008-04-06T10:00:00Z,30.2513,-88.0778,6.572,6.69,1111122 
DISL,ioos:station:DISL:DISL:1,2008-04-06T10:30:00Z,30.2513,-88.0778,6.612,6.81,1111122 
DISL,ioos:station:DISL:DISL:1,2008-04-06T11:00:00Z,30.2513,-88.0778,6.664,6.89,1111122 
DISL,ioos:station:DISL:DISL:1,2008-04-06T11:30:00Z,30.2513,-88.0778,6.711,6.11,1111122 
DISL,ioos:station:DISL:DISL:1,2008-04-06T12:00:00Z,30.2513,-88.0778,6.749,5.78,1111122 
DISL,ioos:station:DISL:DISL:1,2008-04-06T12:30:00Z,30.2513,-88.0778,6.833,5.66,1111122 
DISL,ioos:station:DISL:DISL:1,2008-04-06T13:00:00Z,30.2513,-88.0778,6.876,5.49,1111122 
DISL,ioos:station:DISL:DISL:1,2008-04-06T13:30:00Z,30.2513,-88.0778,6.923,5.82,1111122 
DISL,ioos:station:DISL:DISL:1,2008-04-06T14:00:00Z,30.2513,-88.0778,6.881,5.13,1111122 
DISL,ioos:station:DISL:DISL:1,2008-04-06T14:30:00Z,30.2513,-88.0778,6.971,5.29,1111122 
DISL,ioos:station:DISL:DISL:1,2008-04-06T15:00:00Z,30.2513,-88.0778,6.989,5.38,1111122 
DISL,ioos:station:DISL:DISL:1,2008-04-06T15:30:00Z,30.2513,-88.0778,6.947,5.75,1111122 